User: anonymous   Login
Location: Unspecified
(0.0000°N, 0.0000°E)
Time: 08:43:27
(UTC+00:00)
Language:

MERIDIAN 6 - Orbit

View from above orbital plane
View from above orbital plane
View from above satellite
View from above satellite

Ground track
Ground track

The orbit data is extracted from the following two-line orbital elements,

1 38995U 12063A   17293.13272529 -.00000067  00000-0  10000-3 0  9997
2 38995  65.4160 321.5556 6878198 280.6612  14.2666  2.00622197 36123
Epoch (UTC): 20 October 2017 03:11:07
Eccentricity: 0.6878198
inclination: 65.4160°
perigee height: 1912 km
apogee height: 38442 km
right ascension of ascending node: 321.5556°
argument of perigee: 280.6612°
revolutions per day: 2.00622197
mean anomaly at epoch: 14.2666°
orbit number at epoch: 3612

The dashed part of the orbit path shows where the satellite is in the earth's shadow,  

DLR